Location: Bay Shore Mobile Home Park
(38.5762°N, 75.0841°W)
Time: 08:49:21
(UTC+00:00)

SPOT 1/Viking Rocket - Pass Details

Date: 15 November 2025
Orbit: 773 x 788 km, 98.2° (Epoch: 05 December)

Event Time Altitude Azimuth Distance (km) Brightness Sun altitude
Rises 23:14:36 0° 163° (SSE) 3,247 6.7 -17.2°
Reaches altitude 10° 23:16:54 10° 163° (SSE) 2,325 5.9 -17.6°
Maximum altitude 23:22:03 83° 76° (ENE) 793 3.4 -18.6°
Drops below altitude 10° 23:27:15 10° 349° (N) 2,351 6.0 -19.6°
Sets 23:29:35 0° 349° (NNW) 3,286 6.8 -20.1°
